Find Starlink 6116

NORAD ID: 56911 Int'l Des: 2023-083 Owner: SPXS Country: US Constellation: starlink operational
LEOCIRCULAR

現在のビュー

3D地球を読み込み中...

About Starlink 6116

Starlink 6116 (NORAD 56911) is a starlink constellation satellite (v1.5) launched Jun 12, 2023 by SPXS of US. It operates in LEO, CIRCULAR orbit with a mass of 305.00 kg.

Starlink 6116について

説明を読み込み中...

次回通過

Passes for default location (London). Set your location on the main map for personalized predictions.

高度履歴

Loading altitude history...

軌道要素

1 56911U 23083AM 26174.76780958 -.00000437 00000-0 -63758-5 0 9998
2 56911 43.0014 191.4183 0001249 278.5589 81.5121 15.27575331168027
Epoch: Jun 23, 2026 • Age: 29 hours

現在のステータス

高度 490.1 km
速度 7.62 km/s
衛星直下点 -28.58°S, 132.14°E
打ち上げ日 Jun 12, 2023
運用期間 3 years
タイプ internet

技術仕様

分類 Payload
質量 305.00 kg
乾燥質量 290.00 kg
総質量 305.00 kg
長さ 0.20 m
直径 2.80 m
スパン 9.00 m
形状 Box + pan
製造者 SPXS
バスタイプ Starlink
フェーズステータス In Orbit
所有者/国 SPXS/US

Most Searched